TimePST,TemperatureF,Dew PointF,Humidity,Sea Level PressureIn,VisibilityMPH,Wind Direction,Wind SpeedMPH,Gust SpeedMPH,PrecipitationIn,Events,Conditions,WindDirDegrees,DateUTC
12:54 AM,37.0,36.0,96,30.30,8.0,Calm,Calm,-,N/A,,Overcast,0,2013-02-09 08:54:00
1:02 AM,37.4,35.6,93,30.28,8.0,Calm,Calm,-,N/A,,Mostly Cloudy,0,2013-02-09 09:02:00
1:13 AM,37.4,35.6,93,30.28,8.0,Calm,Calm,-,N/A,,Overcast,0,2013-02-09 09:13:00
1:31 AM,37.4,35.6,93,30.28,7.0,Calm,Calm,-,N/A,,Overcast,0,2013-02-09 09:31:00
1:47 AM,35.6,35.6,100,30.28,9.0,SE,3.5,-,N/A,,Overcast,130,2013-02-09 09:47:00
1:54 AM,37.0,35.1,93,30.29,10.0,SE,4.6,-,N/A,,Overcast,140,2013-02-09 09:54:00
2:38 AM,37.4,35.6,93,30.28,10.0,Calm,Calm,-,N/A,,Overcast,0,2013-02-09 10:38:00
2:54 AM,37.0,35.1,93,30.30,10.0,Calm,Calm,-,N/A,,Overcast,0,2013-02-09 10:54:00
3:18 AM,37.4,35.6,93,30.29,10.0,Calm,Calm,-,N/A,,Overcast,0,2013-02-09 11:18:00
3:46 AM,37.4,33.8,87,30.29,10.0,SSE,3.5,-,N/A,,Overcast,160,2013-02-09 11:46:00
3:54 AM,37.0,34.0,89,30.30,10.0,SSE,3.5,-,N/A,,Overcast,150,2013-02-09 11:54:00
4:54 AM,36.0,34.0,93,30.30,10.0,SSE,3.5,-,N/A,,Overcast,160,2013-02-09 12:54:00
5:13 AM,35.6,33.8,93,30.29,10.0,SSE,3.5,-,N/A,,Overcast,150,2013-02-09 13:13:00
5:32 AM,35.6,33.8,93,30.29,10.0,SSE,4.6,-,N/A,,Overcast,160,2013-02-09 13:32:00
5:54 AM,36.0,34.0,93,30.30,9.0,SSW,3.5,-,N/A,,Mostly Cloudy,210,2013-02-09 13:54:00
6:24 AM,37.4,35.6,93,30.29,8.0,Calm,Calm,-,N/A,,Overcast,0,2013-02-09 14:24:00
6:54 AM,37.0,35.1,93,30.30,7.0,Calm,Calm,-,N/A,,Overcast,0,2013-02-09 14:54:00
7:54 AM,37.0,35.1,93,30.30,9.0,Calm,Calm,-,N/A,,Overcast,0,2013-02-09 15:54:00
8:54 AM,37.9,35.1,89,30.31,10.0,South,3.5,-,N/A,,Overcast,170,2013-02-09 16:54:00
9:54 AM,39.9,37.0,89,30.32,10.0,Calm,Calm,-,N/A,,Overcast,0,2013-02-09 17:54:00
10:54 AM,43.0,37.9,82,30.32,10.0,WSW,3.5,-,N/A,,Mostly Cloudy,240,2013-02-09 18:54:00
11:54 AM,45.0,36.0,71,30.32,10.0,Calm,Calm,-,N/A,,Overcast,0,2013-02-09 19:54:00
12:54 PM,45.0,37.0,74,30.30,10.0,Calm,Calm,-,N/A,,Overcast,0,2013-02-09 20:54:00
1:11 PM,46.4,37.4,71,30.29,10.0,Calm,Calm,-,N/A,,Overcast,0,2013-02-09 21:11:00
1:54 PM,46.9,37.0,68,30.29,10.0,Calm,Calm,-,N/A,,Overcast,0,2013-02-09 21:54:00
2:54 PM,46.0,37.0,71,30.29,10.0,Calm,Calm,-,N/A,,Overcast,0,2013-02-09 22:54:00
3:54 PM,46.0,37.9,73,30.30,10.0,Calm,Calm,-,N/A,,Overcast,0,2013-02-09 23:54:00
4:54 PM,44.1,39.9,85,30.30,10.0,ESE,5.8,-,N/A,,Overcast,120,2013-02-10 00:54:00
5:54 PM,44.1,39.9,85,30.30,10.0,South,4.6,-,N/A,,Overcast,170,2013-02-10 01:54:00
6:54 PM,43.0,41.0,93,30.30,10.0,SE,3.5,-,0.00,,Overcast,140,2013-02-10 02:54:00
7:54 PM,43.0,41.0,93,30.30,6.0,SSE,4.6,-,0.01,,Light Drizzle,150,2013-02-10 03:54:00
8:38 PM,42.8,41.0,93,30.28,8.0,SSE,5.8,-,0.00,,Overcast,160,2013-02-10 04:38:00
8:54 PM,43.0,41.0,93,30.29,10.0,SSE,4.6,-,0.00,,Overcast,160,2013-02-10 04:54:00
9:54 PM,43.0,41.0,93,30.30,8.0,SE,5.8,-,0.00,,Light Drizzle,140,2013-02-10 05:54:00
10:01 PM,42.8,41.0,93,30.29,6.0,SE,5.8,-,0.00,,Light Drizzle,130,2013-02-10 06:01:00
10:54 PM,43.0,41.0,93,30.31,6.0,SE,4.6,-,0.00,,Overcast,140,2013-02-10 06:54:00
11:54 PM,42.1,41.0,96,30.31,2.5,SE,4.6,-,0.01,Rain,Light Rain,130,2013-02-10 07:54:00